Location: St. Louis
(38.6270°N, 90.1994°W)
Time: 10:45:20
(UTC-06:00)

Altair - Pass Details

Date: 09 December 2021
Orbit: 1501 x 1683 km, 47.2° (Epoch: 25 January)

Event Time Altitude Azimuth Distance (km) Brightness Sun altitude
Rises 15:07:25 0° 256° (WSW) 4,817 11.2 13.5°
Reaches altitude 10° 15:10:38 10° 259° (W) 3,808 10.7 13.1°
Maximum altitude 15:20:11 63° 340° (NNW) 1,704 7.9 11.7°
Drops below altitude 10° 15:29:24 10° 61° (ENE) 3,684 8.9 10.4°
Sets 15:32:28 0° 65° (ENE) 4,653 9.4 9.9°
